Location: Les Martinières
(47.2667°N, 1.4410°E)
Time: 23:17:50
(UTC+00:00)

Cosmos 1238 Rocket - Pass Details

Date: 15 May 2026
Orbit: 351 x 697 km, 82.9° (Epoch: 11 June)

Event Time Altitude Azimuth Distance (km) Brightness Sun altitude
Exits shadow 23:14:40 28° 81° (E) 1,085 4.3 -23.2°
Drops below altitude 10° 23:18:08 10° 29° (NNE) 1,960 6.3 -23.3°
Sets 23:20:42 0° 18° (NNE) 2,929 7.6 -23.3°
